| time (UTC) | temp F | wind direction | speed knots | gust knots | rain 1hr in | rain 24hr in | rain mn in | humidity % | barometer mb |
| 20260902194254 | 75 | 200 | 0.0 | 0.0 | 0.00 | 0.39 | 0.40 | 91 | 1017.5 |
| 20260902193237 | 75 | 198 | 0.0 | 1.7 | 0.00 | 0.39 | 0.40 | 91 | 1017.2 |
| 20260902190018 | 74 | 105 | 0.0 | 0.0 | 0.00 | 0.39 | 0.40 | 89 | 1016.8 |
| 20260902185010 | 74 | 105 | 0.0 | 0.0 | 0.00 | 0.39 | 0.40 | 91 | 1017.7 |
| 20260902184033 | 74 | 105 | 0.0 | 0.0 | 0.04 | 0.39 | 0.40 | 90 | 1017.5 |
| 20260902181816 | 77 | 97 | 0.0 | 3.5 | 3.45 | 0.18 | 0.24 | 81 | 1019.3 |
| 20260902180829 | 81 | 92 | 1.7 | 7.0 | 0.27 | 0.02 | 0.03 | 76 | 1019.5 |
| 20260902174641 | 90 | 60 | 0.9 | 4.3 | 0.00 | 0.00 | 0.00 | 64 | 1018.4 |
| 20260902173638 | 92 | 0 | 0.9 | 4.3 | 0.00 | 0.00 | 0.00 | 59 | 1018.2 |
| 20260902172628 | 92 | 82 | 0.0 | 3.5 | 0.00 | 0.00 | 0.00 | 59 | 1018.1 |
| 20260902171601 | 91 | 323 | 0.9 | 3.5 | 0.00 | 0.00 | 0.00 | 61 | 1018.0 |
| 20260902170602 | 91 | 355 | 0.0 | 0.0 | 0.00 | 0.00 | 0.00 | 60 | 1017.9 |
| 20260902165530 | 91 | 5 | 0.9 | 5.2 | 0.00 | 0.00 | 0.00 | 59 | 1017.8 |
| 20260902164536 | 92 | 185 | 0.9 | 5.2 | 0.00 | 0.00 | 0.00 | 60 | 1017.7 |
| 20260902163548 | 92 | 103 | 0.0 | 5.2 | 0.00 | 0.00 | 0.00 | 59 | 1017.7 |
| 20260902162523 | 91 | 104 | 0.0 | 3.5 | 0.00 | 0.00 | 0.00 | 58 | 1017.8 |
| 20260902161539 | 92 | 42 | 0.0 | 0.0 | 0.00 | 0.00 | 0.00 | 59 | 1017.8 |
| 20260902155333 | 91 | 74 | 0.9 | 4.3 | 0.00 | 0.00 | 0.00 | 60 | 1017.6 |
| 20260902154332 | 91 | 192 | 0.0 | 2.6 | 0.00 | 0.00 | 0.00 | 60 | 1017.6 |
| 20260902153316 | 90 | 104 | 0.0 | 5.2 | 0.00 | 0.00 | 0.00 | 61 | 1017.6 |
| 20260902152326 | 90 | 115 | 0.9 | 5.2 | 0.00 | 0.00 | 0.00 | 62 | 1017.6 |
| 20260902151304 | 89 | 105 | 0.9 | 5.2 | 0.00 | 0.00 | 0.00 | 63 | 1017.5 |
| 20260902150303 | 89 | 187 | 0.0 | 0.9 | 0.00 | 0.00 | 0.00 | 64 | 1017.5 |
| 20260902145257 | 87 | 107 | 1.7 | 4.3 | 0.00 | 0.00 | 0.00 | 64 | 1017.6 |
| 20260902144312 | 87 | 111 | 0.9 | 5.2 | 0.00 | 0.00 | 0.00 | 65 | 1017.6 |
| 20260902143333 | 87 | 119 | 2.6 | 5.2 | 0.00 | 0.00 | 0.00 | 66 | 1017.4 |
| 20260902142259 | 88 | 114 | 0.0 | 4.3 | 0.00 | 0.00 | 0.00 | 65 | 1017.6 |
| 20260902141323 | 87 | 84 | 0.9 | 4.3 | 0.00 | 0.00 | 0.00 | 66 | 1017.6 |
| 20260902140319 | 87 | 88 | 0.9 | 4.3 | 0.00 | 0.00 | 0.00 | 67 | 1017.6 |
| 20260902134131 | 86 | 123 | 0.9 | 4.3 | 0.00 | 0.00 | 0.00 | 68 | 1017.4 |
| 20260902132003 | 85 | 108 | 0.0 | 0.9 | 0.00 | 0.00 | 0.00 | 70 | 1017.5 |
| 20260902125858 | 83 | 115 | 0.0 | 3.5 | 0.00 | 0.00 | 0.00 | 72 | 1017.3 |
| 20260902124844 | 82 | 284 | 0.0 | 0.0 | 0.00 | 0.00 | 0.00 | 77 | 1017.4 |
| 20260902123851 | 81 | 275 | 0.0 | 0.0 | 0.00 | 0.00 | 0.00 | 79 | 1017.3 |
| 20260902121746 | 78 | 275 | 0.0 | 0.0 | 0.00 | 0.00 | 0.00 | 84 | 1017.1 |
| 20260902120801 | 77 | 275 | 0.0 | 0.0 | 0.00 | 0.00 | 0.00 | 87 | 1017.1 |
| 20260902114645 | 76 | 275 | 0.0 | 0.0 | 0.00 | 0.00 | 0.00 | 88 | 1017.0 |
| 20260902113615 | 76 | 275 | 0.0 | 0.0 | 0.00 | 0.00 | 0.00 | 88 | 1016.9 |
| 20260902112621 | 76 | 275 | 0.0 | 0.0 | 0.00 | 0.00 | 0.00 | 89 | 1016.9 |
| 20260902111554 | 76 | 275 | 0.0 | 0.0 | 0.00 | 0.00 | 0.00 | 90 | 1017.0 |
| 20260902110556 | 76 | 275 | 0.0 | 0.0 | 0.00 | 0.00 | 0.00 | 89 | 1017.0 |
| 20260902105556 | 75 | 275 | 0.0 | 0.0 | 0.00 | 0.00 | 0.00 | 89 | 1017.1 |
| 20260902104523 | 75 | 275 | 0.0 | 0.0 | 0.00 | 0.00 | 0.00 | 89 | 1017.1 |
| 20260902102351 | 76 | 275 | 0.0 | 0.0 | 0.00 | 0.00 | 0.00 | 89 | 1017.0 |
| 20260902101347 | 76 | 275 | 0.0 | 0.0 | 0.00 | 0.00 | 0.00 | 88 | 1017.0 |
| 20260902100333 | 76 | 275 | 0.0 | 0.0 | 0.00 | 0.00 | 0.00 | 88 | 1016.7 |
| 20260902095351 | 76 | 275 | 0.0 | 0.0 | 0.00 | 0.00 | 0.00 | 89 | 1016.7 |
| 20260902093233 | 75 | 275 | 0.0 | 0.0 | 0.00 | 0.00 | 0.00 | 88 | 1016.7 |
| 20260902092237 | 75 | 275 | 0.0 | 0.0 | 0.00 | 0.00 | 0.00 | 88 | 1016.8 |
| 20260902091210 | 75 | 275 | 0.0 | 0.0 | 0.00 | 0.00 | 0.00 | 88 | 1016.7 |
| 20260902090206 | 75 | 275 | 0.0 | 0.0 | 0.00 | 0.00 | 0.00 | 88 | 1016.7 |
| 20260902084027 | 75 | 275 | 0.0 | 0.0 | 0.00 | 0.00 | 0.00 | 87 | 1016.7 |
| 20260902083049 | 76 | 275 | 0.0 | 0.0 | 0.00 | 0.00 | 0.00 | 87 | 1016.7 |
| 20260902082025 | 76 | 275 | 0.0 | 0.0 | 0.00 | 0.00 | 0.00 | 86 | 1016.7 |
| 20260902081038 | 76 | 275 | 0.0 | 0.0 | 0.00 | 0.00 | 0.00 | 86 | 1016.4 |
| 20260902080008 | 76 | 275 | 0.0 | 0.0 | 0.00 | 0.00 | 0.00 | 85 | 1016.4 |
| 20260902075012 | 77 | 275 | 0.0 | 0.0 | 0.00 | 0.00 | 0.00 | 85 | 1016.3 |
| 20260902073946 | 77 | 275 | 0.0 | 0.0 | 0.00 | 0.00 | 0.00 | 84 | 1016.3 |
| 20260902072923 | 77 | 275 | 0.0 | 0.0 | 0.00 | 0.00 | 0.00 | 84 | 1016.2 |
| 20260902071920 | 77 | 275 | 0.0 | 0.0 | 0.00 | 0.00 | 0.00 | 83 | 1016.2 |
| 20260902070933 | 77 | 275 | 0.0 | 0.0 | 0.00 | 0.00 | 0.00 | 82 | 1016.2 |
| 20260902063645 | 78 | 275 | 0.0 | 0.0 | 0.00 | 0.00 | 0.00 | 81 | 1016.0 |
| 20260902062652 | 78 | 275 | 0.0 | 0.0 | 0.00 | 0.00 | 0.00 | 82 | 1016.1 |
| 20260902060515 | 78 | 275 | 0.0 | 0.0 | 0.00 | 0.00 | 0.00 | 81 | 1016.1 |
| 20260902055539 | 78 | 275 | 0.0 | 0.0 | 0.00 | 0.00 | 0.00 | 81 | 1016.0 |
| 20260902054507 | 79 | 275 | 0.0 | 0.0 | 0.00 | 0.00 | 0.00 | 80 | 1015.9 |
| 20260902051224 | 79 | 275 | 0.0 | 0.0 | 0.00 | 0.00 | 0.00 | 79 | 1016.0 |
| 20260902045109 | 80 | 275 | 0.0 | 0.0 | 0.00 | 0.00 | 0.00 | 77 | 1015.9 |
| 20260902044107 | 80 | 275 | 0.0 | 0.0 | 0.00 | 0.00 | 0.00 | 76 | 1015.8 |
| 20260902043049 | 81 | 275 | 0.0 | 0.0 | 0.00 | 0.00 | 0.00 | 77 | 1015.6 |
| 20260902042110 | 81 | 275 | 0.0 | 0.0 | 0.00 | 0.00 | 0.00 | 76 | 1015.4 |
| 20260902041103 | 82 | 275 | 0.0 | 0.0 | 0.00 | 0.00 | 0.00 | 75 | 1015.3 |
| 20260902040111 | 82 | 275 | 0.0 | 0.0 | 0.00 | 0.00 | 0.00 | 75 | 1015.3 |
| 20260902035100 | 82 | 275 | 0.0 | 0.0 | 0.00 | 0.00 | 0.00 | 75 | 1015.2 |
| 20260902034027 | 82 | 275 | 0.0 | 0.0 | 0.00 | 0.00 | 0.00 | 74 | 1015.0 |
| 20260902033048 | 83 | 275 | 0.0 | 0.0 | 0.00 | 0.00 | 0.00 | 73 | 1014.8 |
| 20260902032113 | 83 | 275 | 0.0 | 0.0 | 0.00 | 0.00 | 0.00 | 71 | 1014.8 |
| 20260902031039 | 84 | 275 | 0.0 | 0.0 | 0.00 | 0.00 | 0.00 | 72 | 1014.7 |
| 20260902030046 | 84 | 275 | 0.0 | 0.9 | 0.00 | 0.00 | 0.00 | 70 | 1014.6 |
| 20260902025030 | 84 | 275 | 0.0 | 0.0 | 0.00 | 0.00 | 0.00 | 70 | 1014.5 |
| 20260902021726 | 84 | 275 | 0.0 | 0.0 | 0.00 | 0.00 | 0.00 | 72 | 1015.0 |
| 20260902015554 | 85 | 275 | 0.0 | 0.0 | 0.00 | 0.00 | 0.00 | 72 | 1014.6 |
| 20260902014611 | 85 | 275 | 0.0 | 0.0 | 0.00 | 0.00 | 0.00 | 72 | 1014.5 |
| 20260902012508 | 86 | 275 | 0.0 | 0.0 | 0.00 | 0.00 | 0.00 | 72 | 1014.4 |
| 20260902011511 | 86 | 275 | 0.0 | 0.0 | 0.00 | 0.00 | 0.00 | 72 | 1014.3 |
| 20260902010535 | 87 | 275 | 0.0 | 0.0 | 0.00 | 0.00 | 0.00 | 70 | 1014.2 |
| 20260902005549 | 87 | 275 | 0.0 | 2.6 | 0.00 | 0.00 | 0.00 | 68 | 1014.0 |
| 20260902004534 | 88 | 275 | 0.0 | 0.0 | 0.00 | 0.00 | 0.00 | 69 | 1014.0 |
| 20260902003506 | 88 | 275 | 0.0 | 1.7 | 0.00 | 0.00 | 0.00 | 67 | 1013.6 |
| 20260902002514 | 89 | 277 | 0.0 | 0.0 | 0.00 | 0.00 | 0.00 | 66 | 1013.4 |
| 20260902001453 | 89 | 277 | 0.0 | 0.0 | 0.00 | 0.00 | 0.00 | 65 | 1013.2 |
| 20260902000515 | 90 | 277 | 0.0 | 0.0 | 0.00 | 0.00 | 0.00 | 63 | 1013.1 |
| 20260901235520 | 90 | 277 | 0.0 | 0.0 | 0.00 | 0.00 | 0.00 | 62 | 1013.1 |
| 20260901234522 | 91 | 277 | 0.0 | 0.0 | 0.00 | 0.00 | 0.00 | 61 | 1013.0 |
| 20260901233514 | 92 | 277 | 0.0 | 0.0 | 0.00 | 0.00 | 0.00 | 60 | 1013.0 |
| 20260901231424 | 92 | 219 | 0.0 | 3.5 | 0.00 | 0.00 | 0.00 | 58 | 1013.3 |
| 20260901230351 | 93 | 240 | 0.0 | 3.5 | 0.00 | 0.00 | 0.00 | 58 | 1013.3 |
| 20260901225407 | 93 | 275 | 0.9 | 5.2 | 0.00 | 0.00 | 0.00 | 57 | 1013.4 |
| 20260901224337 | 93 | 271 | 0.9 | 7.0 | 0.00 | 0.00 | 0.00 | 56 | 1013.3 |
| 20260901223341 | 94 | 250 | 0.9 | 7.0 | 0.00 | 0.00 | 0.00 | 54 | 1013.3 |
| 20260901222332 | 94 | 217 | 0.9 | 5.2 | 0.00 | 0.00 | 0.00 | 54 | 1013.4 |
| 20260901221355 | 95 | 259 | 0.9 | 0.9 | 0.00 | 0.00 | 0.00 | 52 | 1013.4 |
| 20260901220351 | 95 | 279 | 1.7 | 7.8 | 0.00 | 0.00 | 0.00 | 50 | 1013.4 |
| 20260901215335 | 96 | 287 | 1.7 | 7.8 | 0.00 | 0.00 | 0.00 | 50 | 1013.4 |
| 20260901214306 | 96 | 333 | 0.9 | 7.8 | 0.00 | 0.00 | 0.00 | 52 | 1013.5 |
| 20260901213321 | 96 | 274 | 0.9 | 7.8 | 0.00 | 0.00 | 0.00 | 49 | 1013.5 |
| 20260901211151 | 96 | 256 | 0.9 | 7.8 | 0.00 | 0.00 | 0.00 | 49 | 1013.4 |
| 20260901210144 | 97 | 323 | 1.7 | 6.1 | 0.00 | 0.00 | 0.00 | 49 | 1013.6 |
| 20260901205204 | 97 | 275 | 1.7 | 7.0 | 0.00 | 0.00 | 0.00 | 49 | 1013.6 |
| 20260901204154 | 97 | 232 | 0.0 | 7.0 | 0.00 | 0.00 | 0.00 | 49 | 1013.7 |
| 20260901203147 | 96 | 208 | 1.7 | 6.1 | 0.00 | 0.00 | 0.00 | 51 | 1013.8 |
| 20260901202126 | 96 | 266 | 0.9 | 6.1 | 0.00 | 0.00 | 0.00 | 51 | 1013.9 |
| 20260901200001 | 97 | 332 | 1.7 | 6.1 | 0.00 | 0.00 | 0.00 | 50 | 1014.2 |
| 20260901195021 | 98 | 260 | 1.7 | 7.0 | 0.00 | 0.00 | 0.00 | 49 | 1014.3 |